Ephrata, WA
on Monday, January 21, 2013

Monday
Previous Day Next Day
Daily Summary
 ActualAverageRecord
Temperature
Mean Temperature °F 30°F  
Max Temperature 22°F 36°F 51°F (2010)
Min Temperature 18°F 23°F -4°F (1962)
Degree Days
Heating Degree Days 45 35  
Month to date heating degree days 819 777  
Since 1 July heating degree days 3074 3363  
Cooling Degree Days 0 0  
Month to date cooling degree days 0 0  
Year to date cooling degree days 0 0  
Moisture
Dew Point 18°F   
Average Humidity 88    
Maximum Humidity 92    
Minimum Humidity 84    
Precipitation
Precipitation 0.00 in 0.03 in 0.32 in (1954)
Month to date precipitation 0.18 0.66  
Year to date precipitation 0.18 0.66  
Wind
Wind Speed 4 mph   
Max Wind Speed 10 mph   
Max Gust Speed 12 mph   
Visibility 9 miles   
Events     

Key: T is trace of precipitation, MM is missing value
Source: NWS Daily Summary
Time(PST)TemperatureDew PointHumidity Pressure Visibility Wind DirectionWind SpeedGust SpeedPrecipitationEvents Conditions
1:08 AM 19.4°F 15.8°F 86% 30.42 in 10.0 miles WNW 8.1 mph - N/A   Overcast
1:53 AM 19.0°F 16.0°F 88% 30.48 in 9.0 miles NW 8.1 mph - N/A   Overcast
2:53 AM 19.9°F 17.1°F 89% 30.48 in 9.0 miles WNW 5.8 mph - N/A   Overcast
4:53 AM 19.9°F 17.1°F 89% 30.47 in 7.0 miles NW 5.8 mph - N/A   Overcast
5:19 AM 19.4°F 17.6°F 93% 30.40 in 8.0 miles NW 5.8 mph - N/A   Overcast
5:53 AM 19.9°F 18.0°F 92% 30.46 in 8.0 miles NW 4.6 mph - N/A   Overcast
6:53 AM 19.9°F 18.0°F 92% 30.45 in 9.0 miles NNW 4.6 mph - N/A   Overcast
7:53 AM 19.0°F 17.1°F 92% 30.45 in 8.0 miles NNW 6.9 mph - N/A   Overcast
8:53 AM 19.9°F 17.1°F 89% 30.45 in 10.0 miles NW 4.6 mph - N/A   Overcast
9:53 AM 19.9°F 17.1°F 89% 30.47 in 10.0 miles NW 6.9 mph - N/A   Overcast
10:53 AM 19.9°F 17.1°F 89% 30.47 in 10.0 miles NNW 8.1 mph - N/A   Overcast
11:53 AM 21.0°F 17.1°F 85% 30.45 in 10.0 miles North 8.1 mph - N/A   Overcast
12:53 PM 21.0°F 17.1°F 85% 30.42 in 10.0 miles NNE 5.8 mph - N/A   Overcast
1:53 PM 21.0°F 17.1°F 85% 30.41 in 10.0 miles NE 5.8 mph - N/A   Overcast
2:53 PM 21.0°F 17.1°F 85% 30.40 in 10.0 miles NNW 3.5 mph - N/A   Overcast
3:53 PM 21.0°F 18.0°F 88% 30.40 in 10.0 miles Calm Calm - N/A   Overcast
4:53 PM 21.0°F 18.0°F 88% 30.39 in 10.0 miles Calm Calm - N/A   Overcast
5:53 PM 21.0°F 18.0°F 88% 30.39 in 10.0 miles Calm Calm - N/A   Overcast
6:53 PM 21.0°F 18.0°F 88% 30.40 in 10.0 miles NNW 3.5 mph - N/A   Overcast
7:53 PM 21.0°F 18.0°F 88% 30.39 in 10.0 miles Calm Calm - N/A   Overcast
8:53 PM 21.0°F 19.0°F 92% 30.40 in 10.0 miles Calm Calm - N/A   Overcast
9:30 PM 21.2°F 19.4°F 93% 30.33 in 9.0 miles Calm Calm - N/A   Overcast
9:53 PM 21.0°F 19.0°F 92% 30.40 in 9.0 miles Calm Calm - N/A   Overcast
10:53 PM 21.0°F 19.0°F 92% 30.41 in 7.0 miles North 3.5 mph - N/A   Overcast
11:53 PM 21.0°F 19.0°F 92% 30.40 in 6.0 miles North 3.5 mph - N/A   Overcast
Moon Phase
Jan. 21 Jan. 26 Feb. 03 Feb. 10 Feb. 17
Sunrise:07:35 AM (PST) Moon Rise:12:25 PM (PST)
Sunset:04:43 PM (PST) Moon Set:03:09 AM (PST)

Copyright © 2014 The Weather Underground, Inc.